Weather History for KSLH - May, 2013

Change the Weather History Date:

Monday, May 27, 2013

  Actual Average (KPLN) Record (KPLN)
Temperature  
Mean Temperature 52 °F -  
Max Temperature 69 °F 70 °F 89 °F (1978)
Min Temperature 35 °F 41 °F 24 °F (1961)
Degree Days  
Heating Degree Days 13    
Growing Degree Days 2 (Base 50)    
Moisture  
Dew Point 36 °F    
Average Humidity 57    
Maximum Humidity 92    
Minimum Humidity 19    
Precipitation  
Precipitation 0.00 in - - ()
Sea Level Pressure  
Sea Level Pressure 30.16 in    
Wind  
Wind Speed 3 mph (East)    
Max Wind Speed 13 mph    
Max Gust Speed 17 mph    
Visibility 10 miles    
Events      
Averages and records for this station are not official NWS values.
T = Trace of Precipitation, MM = Missing Value Source: NWS Daily Summary

Daily Weather History Graph

Daily Weather History Graph

Search for Another Location

Airport or City:

Trip Planner

Search our weather history database for the weather conditions in past years. The results will help you decide how hot, cold, wet, or windy it might be!

Date:

Astronomy

May. 27, 2013 Rise Set
Actual Time 5:55 AM EDT 9:15 PM EDT
Civil Twilight 5:18 AM EDT 9:52 PM EDT
Nautical Twilight 4:31 AM EDT 10:40 PM EDT
Astronomical Twilight 3:31 AM EDT 11:40 PM EDT
Moon 11:50 PM EDT (5/27) 8:33 AM EDT (5/27)
Length of Visible Light 16h 33m
Length of Day
15h 20m
Waning Gibbous, 91% of the Moon is Illuminated
May 27
Waning Gibbous
May 31
Last Quarter
Jun 8
New
Jun 16
First Quarter
Jun 23
Full

Hourly Weather History & Observations

Time (EDT) Temp. Windchill Dew Point Humidity Pressure Visibility Wind Dir Wind Speed Gust Speed Precip Events Conditions
12:15 AM 42.4 °F - 36.7 °F 80% 30.26 in 10.0 mi Calm Calm - N/A   Clear
12:35 AM 41.9 °F - 37.4 °F 84% 30.26 in 10.0 mi Calm Calm - N/A   Clear
12:55 AM 39.7 °F - 36.1 °F 87% 30.26 in 10.0 mi Calm Calm - N/A   Clear
1:15 AM 40.3 °F - 36.5 °F 86% 30.25 in 10.0 mi Calm Calm - N/A   Clear
1:35 AM 39.7 °F - 36.5 °F 88% 30.25 in 10.0 mi Calm Calm - N/A   Clear
1:55 AM 39.7 °F 37.6 °F 36.7 °F 89% 30.25 in 10.0 mi SW 3.5 mph - N/A   Clear
2:15 AM 39.2 °F - 35.6 °F 87% 30.25 in 10.0 mi Calm Calm - N/A   Clear
2:35 AM 39.2 °F - 36.0 °F 88% 30.25 in 10.0 mi Calm Calm - N/A   Clear
2:55 AM 37.8 °F - 34.3 °F 87% 30.25 in 10.0 mi Calm Calm - N/A   Clear
3:15 AM 37.8 °F - 34.7 °F 89% 30.24 in 10.0 mi Calm Calm - N/A   Clear
3:36 AM 37.4 °F - 34.3 °F 89% 30.23 in 10.0 mi Calm Calm - N/A   Clear
3:55 AM 38.1 °F - 35.4 °F 90% 30.22 in 10.0 mi Calm Calm - N/A   Clear
4:15 AM 37.9 °F 35.5 °F 34.9 °F 89% 30.22 in 10.0 mi WSW 3.5 mph - N/A   Clear
4:35 AM 36.5 °F - 33.3 °F 88% 30.22 in 10.0 mi Calm Calm - N/A   Clear
4:55 AM 36.5 °F - 34.2 °F 91% 30.23 in 10.0 mi Calm Calm - N/A   Clear
5:15 AM 37.4 °F - 35.1 °F 91% 30.22 in 10.0 mi Calm Calm - N/A   Clear
5:35 AM 36.3 °F 33.7 °F 33.8 °F 91% 30.23 in 10.0 mi SW 3.5 mph - N/A   Clear
5:55 AM 38.1 °F 35.7 °F 36.0 °F 92% 30.23 in 10.0 mi SW 3.5 mph - N/A   Clear
6:15 AM 35.8 °F - 33.3 °F 91% 30.23 in 10.0 mi Calm Calm - N/A   Clear
6:35 AM 36.9 °F - 34.3 °F 91% 30.23 in 10.0 mi Calm Calm - N/A   Clear
6:55 AM 41.4 °F - 38.8 °F 91% 30.23 in 10.0 mi Calm Calm - N/A   Clear
7:15 AM 47.1 °F - 41.7 °F 81% 30.24 in 10.0 mi South 3.5 mph - N/A   Clear
7:35 AM 49.5 °F - 40.5 °F 71% 30.24 in 10.0 mi Calm Calm - N/A   Clear
7:56 AM 50.0 °F - 41.5 °F 73% 30.23 in 10.0 mi Calm Calm - N/A   Clear
8:15 AM 51.1 °F - 41.5 °F 70% 30.22 in 10.0 mi Calm Calm - N/A   Clear
8:35 AM 52.7 °F - 41.9 °F 67% 30.22 in 10.0 mi ESE 4.6 mph - N/A   Clear
8:55 AM 53.8 °F - 42.3 °F 65% 30.23 in 10.0 mi SSE 3.5 mph - N/A   Clear
9:15 AM 55.6 °F - 41.7 °F 60% 30.23 in 10.0 mi Calm Calm - N/A   Clear
9:35 AM 57.4 °F - 41.0 °F 54% 30.23 in 10.0 mi Calm Calm - N/A   Clear
9:55 AM 59.7 °F - 41.0 °F 50% 30.23 in 10.0 mi SSE 4.6 mph - N/A   Clear
10:15 AM 61.9 °F - 40.3 °F 45% 30.23 in 10.0 mi Calm Calm - N/A   Clear
10:35 AM 63.3 °F - 38.3 °F 40% 30.23 in 10.0 mi ESE 6.9 mph - N/A   Clear
10:55 AM 62.2 °F - 42.6 °F 49% 30.23 in 10.0 mi ENE 6.9 mph - N/A   Clear
11:16 AM 60.3 °F - 41.0 °F 49% 30.22 in 10.0 mi NE 6.9 mph - N/A   Clear
11:35 AM 60.3 °F - 38.1 °F 44% 30.21 in 10.0 mi NE 9.2 mph - N/A   Clear
11:56 AM 59.9 °F - 37.8 °F 44% 30.20 in 10.0 mi ENE 9.2 mph - N/A   Clear
12:15 PM 59.0 °F - 39.6 °F 49% 30.19 in 10.0 mi NE 8.1 mph - N/A   Clear
12:23 PM 59.4 °F - 40.1 °F 49% 30.19 in 10.0 mi NE 10.4 mph - N/A   Clear
12:55 PM 59.9 °F - 41.4 °F 50% 30.18 in 10.0 mi NE 6.9 mph - N/A   Clear
1:15 PM 63.5 °F - 38.5 °F 40% 30.16 in 10.0 mi NE 10.4 mph - N/A   Clear
1:35 PM 64.0 °F - 38.7 °F 39% 30.16 in 10.0 mi ENE 9.2 mph - N/A   Clear
1:55 PM 63.7 °F - 39.4 °F 41% 30.16 in 10.0 mi ENE 11.5 mph - N/A   Clear
2:15 PM 62.4 °F - 41.0 °F 45% 30.16 in 10.0 mi NE 10.4 mph - N/A   Clear
2:35 PM 63.3 °F - 40.8 °F 44% 30.15 in 10.0 mi NE 12.7 mph - N/A   Clear
2:55 PM 59.7 °F - 40.5 °F 49% 30.15 in 10.0 mi ENE 10.4 mph - N/A   Clear
3:15 PM 60.1 °F - 41.0 °F 49% 30.15 in 10.0 mi NE 12.7 mph - N/A   Clear
3:35 PM 60.8 °F - 41.0 °F 48% 30.14 in 10.0 mi NE 10.4 mph - N/A   Clear
3:55 PM 60.6 °F - 39.7 °F 46% 30.13 in 10.0 mi ENE 11.5 mph - N/A   Clear
4:16 PM 59.0 °F - 39.4 °F 48% 30.10 in 10.0 mi ENE 11.5 mph - N/A   Clear
4:35 PM 58.8 °F - 40.6 °F 51% 30.10 in 10.0 mi NE 9.2 mph - N/A   Clear
4:55 PM 59.2 °F - 40.8 °F 51% 30.09 in 10.0 mi NE 8.1 mph - N/A   Clear
5:15 PM 62.4 °F - 40.5 °F 44% 30.08 in 10.0 mi NE 9.2 mph - N/A   Clear
5:35 PM 69.4 °F - 26.8 °F 20% 30.07 in 10.0 mi SE 11.5 mph - N/A   Clear
5:55 PM 68.5 °F - 23.9 °F 19% 30.06 in 10.0 mi SE 10.4 mph 17.3 mph N/A   Clear
6:16 PM 68.7 °F - 25.2 °F 19% 30.06 in 10.0 mi ESE 11.5 mph - N/A   Clear
6:35 PM 66.2 °F - 31.8 °F 28% 30.06 in 10.0 mi East 9.2 mph - N/A   Clear
6:55 PM 65.5 °F - 30.0 °F 26% 30.05 in 10.0 mi East 9.2 mph 16.1 mph N/A   Clear
7:15 PM 64.4 °F - 31.6 °F 29% 30.05 in 10.0 mi East 6.9 mph - N/A   Clear
7:35 PM 63.7 °F - 31.3 °F 30% 30.06 in 10.0 mi East 8.1 mph - N/A   Clear
7:55 PM 62.8 °F - 31.5 °F 31% 30.06 in 10.0 mi East 6.9 mph - N/A   Clear
8:15 PM 61.5 °F - 31.6 °F 33% 30.06 in 10.0 mi East 5.8 mph - N/A   Clear
8:35 PM 60.8 °F - 30.7 °F 32% 30.06 in 10.0 mi East 6.9 mph - N/A   Clear
8:55 PM 59.5 °F - 29.7 °F 32% 30.06 in 10.0 mi East 8.1 mph - N/A   Clear
9:15 PM 58.6 °F - 28.0 °F 31% 30.06 in 10.0 mi East 6.9 mph - N/A   Clear
9:35 PM 57.6 °F - 28.8 °F 33% 30.05 in 10.0 mi East 5.8 mph - N/A   Clear
9:55 PM 55.4 °F - 31.6 °F 40% 30.06 in 10.0 mi ESE 4.6 mph - N/A   Clear
10:15 PM 55.0 °F - 31.8 °F 41% 30.06 in 10.0 mi ESE 8.1 mph - N/A   Clear
10:35 PM 56.3 °F - 31.8 °F 39% 30.06 in 10.0 mi ESE 5.8 mph - N/A   Clear
10:55 PM 55.2 °F - 32.4 °F 42% 30.06 in 10.0 mi ESE 5.8 mph - N/A   Clear
11:15 PM 54.5 °F - 32.5 °F 43% 30.06 in 10.0 mi SSE 4.6 mph - N/A   Clear
11:35 PM 53.6 °F - 33.3 °F 46% 30.05 in 10.0 mi SSE 3.5 mph - N/A   Clear
11:56 PM 53.6 °F - 32.5 °F 45% 30.05 in 10.0 mi SE 6.9 mph - N/A   Clear